RH
34 32 27 24 25 24 23 29 34 40 58 95 95 77 79 82 86 92 95 99 98 77 72 68 63 65 65 63 62 59 41 40 44 50 46 46 42 46 44 36 32 32 28 35 17
34 34 30 25 24 23 23 29 32 38 44 48 76 96 98 89 92 90 93 88 78 70 74 67 58 63 58 59 58 46 46 41 44 43 45 44 40 38 35 30 28 28 33 29 36
30 33 33 28 25 24 23 31 32 43 42 41 77 97 94 86 78 88 78 73 73 74 74 66 58 59 56 58 55 54 46 49 48 48 47 44 41 38 32 31 24 22 25 27 40
27 30 32 30 26 26 28 34 35 42 37 40 82 98 97 85 62 77 67 66 64 63 66 62 58 53 52 55 55 52 52 50 52 57 48 42 39 36 34 25 23 27 31 24 38
26 28 30 32 27 27 29 37 44 46 50 60 84 98 89 78 80 76 73 70 63 54 61 58 54 52 50 51 52 52 50 52 53 53 47 47 38 32 35 34 38 39 23 29 40
27 26 28 30 31 26 30 40 50 61 69 78 92 96 81 60 81 76 58 56 54 53 53 56 52 54 51 50 48 51 51 46 45 40 36 37 30 41 26 31 39 29 22 36 41
27 26 26 28 31 27 31 38 52 70 85 92 92 90 72 64 75 58 45 36 49 48 50 51 54 46 49 48 54 46 36 35 36 31 24 32 24 28 25 32 28 21 20 31 45
34 27 26 26 28 29 30 34 53 70 75 75 76 71 54 65 63 55 47 40 44 38 37 42 51 50 45 49 40 38 35 32 34 25 26 22 24 17 26 27 22 20 18 21 39
92 39 27 25 27 31 28 35 52 68 75 74 70 67 47 55 53 49 48 48 48 46 50 49 48 47 44 34 34 28 27 24 23 23 24 23 23 16 23 22 21 18 16 19 20
88 93 34 27 26 32 30 38 55 69 77 73 63 56 55 52 40 48 46 43 48 48 45 45 44 38 36 32 29 23 26 25 23 23 24 24 25 17 17 21 19 18 17 19 21
90 97 88 39 27 30 33 45 59 53 66 56 48 47 52 44 39 39 43 49 48 40 30 40 28 25 30 35 26 27 27 30 24 25 29 25 24 20 18 19 20 19 17 21 29
97 98 98 76 43 32 35 46 47 41 40 58 46 45 42 39 43 40 44 44 36 26 31 28 24 30 34 41 35 30 29 25 25 26 26 24 24 19 19 21 23 19 23 34 38
99 98 100 96 73 39 38 39 39 42 42 45 45 39 39 38 36 36 43 37 27 28 26 22 29 32 29 36 32 28 31 28 27 26 25 26 22 22 21 28 34 28 34 38 33
99 98 99 99 61 53 40 36 42 48 61 40 40 38 37 42 39 41 37 31 28 25 29 27 28 29 30 29 28 30 27 29 31 30 30 26 28 20 20 28 30 36 35 33 29
96 97 99 100 78 63 44 39 45 62 72 37 39 43 44 38 39 40 37 34 28 28 28 30 29 30 30 27 26 31 30 31 32 30 30 27 31 20 23 22 29 30 32 29 25
94 95 97 99 86 65 50 49 58 72 71 43 40 40 38 37 39 41 38 36 36 32 33 30 34 29 27 30 28 30 29 30 31 29 48 32 31 17 22 18 21 29 29 24 26
100 98 95 96 85 59 54 69 95 86 35 45 43 39 34 40 40 37 39 40 36 49 39 36 33 31 30 31 29 29 28 53 60 61 58 34 36 20 21 19 18 26 24 26 28
98 100 92 92 98 71 65 68 88 34 34 40 42 41 40 42 41 41 43 42 38 34 42 40 41 31 27 30 30 29 30 47 53 45 32 33 31 21 24 22 22 22 22 28 29
96 100 100 93 96 68 76 98 60 25 34 46 42 43 45 46 43 43 41 37 36 35 52 58 40 35 34 29 29 35 38 32 46 43 43 29 24 22 24 21 20 21 25 27 33
97 100 99 91 97 71 91 67 40 34 46 43 38 38 50 49 50 52 43 36 39 37 42 43 62 38 39 33 33 32 32 48 65 64 51 25 26 20 28 26 21 23 26 27 31
99 100 98 100 99 83 96 64 44 47 45 46 40 49 48 54 56 52 62 45 37 43 42 50 54 45 39 40 38 44 40 48 56 59 46 38 21 20 21 21 21 20 23 28 32
100 100 100 100 99 95 88 62 52 51 56 51 48 45 44 46 55 57 51 46 37 38 39 44 86 53 46 48 45 40 62 59 56 73 67 53 35 26 24 22 22 20 24 31 38
99 99 100 100 99 99 81 70 67 60 54 56 51 44 45 46 80 58 51 49 47 40 47 49 68 73 61 54 49 57 47 66 68 56 65 51 32 28 26 27 28 28 29 29 37
100 99 99 99 100 80 84 84 66 61 56 56 55 50 53 54 54 67 57 55 48 42 51 45 62 71 46 73 71 76 75 50 54 60 44 44 32 27 28 28 27 29 33 36 40
100 99 91 97 97 83 88 95 68 71 63 61 67 53 56 79 59 59 55 59 53 55 54 68 75 66 57 47 59 60 70 79 81 53 57 34 34 29 29 30 32 34 36 41 38
100 99 100 98 76 97 92 94 70 63 74 68 72 56 56 78 52 62 65 61 59 65 82 84 81 72 70 60 58 66 57 61 67 56 50 48 49 33 32 34 38 37 37 40 37
92 96 91 98 99 98 93 74 74 63 67 59 58 62 62 55 52 51 51 50 53 78 84 84 84 82 71 60 57 63 48 46 55 56 61 67 46 35 36 39 40 41 40 38 37
Wind_Speed
15 15 16 17 17 16 15 13 11 8 6 1 2 6 11 13 14 10 6 3 4 6 4 3 2 7 7 4 2 3 6 7 5 8 6 7 7 5 1 3 2 3 4 4 2
15 16 17 17 18 17 16 13 11 7 6 0 5 9 11 12 10 5 4 1 2 3 4 4 4 7 6 5 2 6 5 5 2 3 7 8 5 7 5 7 6 7 5 3 5
15 16 17 17 17 18 16 14 13 8 4 2 9 12 13 9 3 2 3 4 4 4 5 6 6 6 5 4 3 2 4 4 5 5 5 4 4 4 5 7 8 10 7 4 6
14 16 17 17 18 16 16 14 12 8 3 4 13 13 9 1 1 3 3 2 0 2 3 5 6 7 5 6 3 5 2 3 6 4 3 3 4 5 11 2 9 8 6 4 6
14 15 16 17 18 17 14 12 11 6 4 8 13 12 1 1 2 2 0 1 1 2 5 4 7 6 6 5 5 6 5 4 4 4 5 3 7 6 10 11 8 5 6 6 7
14 14 15 16 17 16 14 11 7 4 6 8 10 6 1 4 6 2 1 2 2 3 4 3 4 4 6 3 4 3 4 4 4 6 4 6 5 5 8 15 11 10 6 8 8
18 15 14 15 16 16 13 8 3 3 5 6 6 4 2 2 5 2 1 2 4 5 4 8 8 3 6 6 3 2 4 5 8 7 3 4 8 11 8 11 15 12 6 6 8
18 16 16 14 15 15 12 7 3 3 3 3 3 3 1 6 5 3 2 4 6 5 6 7 8 8 2 7 4 3 3 5 6 5 4 4 2 6 9 12 15 10 8 7 11
18 17 16 16 14 14 11 5 4 5 4 3 3 4 2 7 4 6 6 3 6 7 7 8 4 4 5 5 4 4 2 4 5 3 1 7 4 8 8 6 13 13 13 11 13
19 19 15 16 15 13 9 4 5 6 6 6 6 3 5 5 6 7 7 5 2 5 3 2 2 3 4 5 2 4 3 3 3 3 5 10 13 10 13 12 17 17 13 9 13
18 19 20 15 15 12 7 2 2 4 11 6 3 2 5 8 8 5 7 5 3 3 4 1 5 4 3 2 3 3 1 3 1 2 4 5 10 13 15 16 16 14 9 6 11
17 17 21 17 13 12 6 5 7 4 6 14 9 7 8 11 5 7 7 6 5 4 3 4 3 4 6 4 2 1 2 3 3 1 5 9 16 8 3 2 3 7 9 12 13
19 17 18 19 14 11 7 8 8 5 5 5 8 6 7 11 4 11 8 4 3 5 4 3 4 7 5 5 4 3 4 3 4 7 5 11 5 7 4 4 5 6 10 12 11
22 17 17 16 13 7 5 5 4 5 3 6 7 6 8 7 4 7 7 3 3 4 3 2 4 6 5 4 5 3 1 1 3 7 4 6 4 6 6 5 6 10 12 11 9
22 20 16 12 9 9 5 3 7 4 4 9 5 7 8 6 10 5 7 3 4 4 4 4 7 7 5 1 6 4 1 2 3 5 6 3 4 5 6 7 8 9 10 8 4
20 21 18 15 13 10 6 8 11 2 7 8 6 8 8 5 5 6 4 2 3 2 1 2 1 2 2 4 2 8 3 1 2 2 3 1 3 4 6 9 12 11 12 9 6
21 20 18 17 11 8 10 12 3 5 3 7 6 8 10 7 6 7 7 8 5 5 6 3 4 2 2 4 3 4 4 2 2 3 1 2 4 8 3 3 10 14 16 10 1
25 24 19 18 14 10 17 2 7 3 6 3 5 9 9 10 5 8 6 7 8 5 3 6 5 7 3 2 1 3 3 2 3 2 2 3 6 0 1 5 8 14 16 8 3
15 26 24 20 16 15 10 5 7 8 7 12 8 6 8 5 4 8 9 5 5 12 6 5 3 3 3 1 2 5 3 2 3 1 3 2 5 10 7 7 13 16 15 10 7
29 30 30 23 20 19 4 9 7 4 8 7 11 10 13 12 10 10 10 5 8 7 1 5 4 1 3 2 6 2 8 2 0 3 4 4 7 7 9 15 15 15 18 14 12
26 14 15 28 27 15 7 9 7 6 7 9 11 7 6 8 9 8 6 5 6 7 5 4 1 5 3 7 6 4 3 1 1 2 3 3 3 1 3 11 16 16 17 14 14
23 9 19 37 6 5 9 6 3 6 4 3 4 4 10 12 10 9 11 2 14 15 8 4 2 4 2 2 2 1 3 6 4 4 1 3 7 2 3 4 10 14 14 13 16
10 6 29 31 6 6 5 7 4 6 7 8 9 4 3 9 4 5 6 4 13 11 10 9 3 4 3 3 3 5 6 4 3 1 8 4 3 1 1 4 8 12 16 20 25
8 3 6 15 10 15 13 8 9 9 4 4 5 5 5 4 2 7 7 3 9 6 6 10 4 4 3 4 4 5 7 12 10 5 6 14 13 10 8 9 12 18 24 21 17
14 6 9 7 9 8 12 6 14 8 4 8 3 9 10 5 6 7 6 6 4 6 5 3 4 3 4 3 4 5 6 13 14 17 9 11 13 19 15 16 18 20 18 15 18
10 7 9 3 20 13 13 9 11 8 10 7 6 15 10 8 10 12 10 8 6 6 4 0 2 2 3 3 9 13 19 19 19 21 23 25 28 23 24 9 9 14 15 17 17
21 20 11 11 13 13 15 22 15 11 10 5 14 10 12 7 5 2 7 14 13 10 7 7 7 4 3 1 5 12 21 21 14 12 17 16 13 9 7 7 12 14 16 18 17
Wind_Direction
346 348 349 349 348 347 347 353 357 346 341 356 353 99 112 114 119 105 88 9 312 247 214 192 152 166 158 157 139 174 229 226 211 187 156 159 181 170 191 183 147 131 125 121 75
343 346 348 350 348 348 349 354 351 346 334 2 124 125 123 125 120 119 124 267 336 226 198 195 173 165 168 161 162 223 235 214 70 128 159 159 195 167 194 180 179 158 133 108 112
340 344 345 348 348 347 348 354 352 352 350 147 151 140 140 143 154 147 123 104 82 111 179 185 174 171 173 176 168 185 259 156 148 136 149 162 201 207 209 214 199 187 164 135 136
336 341 341 344 346 348 349 351 352 354 32 141 155 153 148 189 260 159 120 119 112 208 176 181 175 181 188 186 166 197 160 172 161 151 160 199 169 209 221 246 174 157 154 143 157
332 337 338 340 343 344 348 350 355 16 67 127 158 158 164 256 157 181 251 286 290 84 190 183 188 180 190 168 162 217 173 187 176 190 246 213 222 234 228 207 167 164 166 166 167
323 331 335 335 338 340 343 344 358 57 99 132 152 158 292 268 175 172 299 228 146 139 142 153 183 160 132 144 217 147 182 191 213 215 212 215 212 205 219 210 202 174 170 175 178
312 321 328 332 333 335 334 330 329 118 126 144 171 211 259 187 181 149 43 120 160 146 126 138 135 151 139 140 129 150 207 195 207 184 186 215 225 228 173 157 174 179 175 188 194
307 311 319 325 327 330 327 308 259 191 173 191 205 206 264 185 180 178 134 91 110 114 136 135 128 116 121 130 138 196 222 200 151 188 166 225 213 165 175 192 196 195 269 247 217
310 306 311 317 322 325 323 292 238 219 229 231 226 210 219 198 196 189 166 145 119 105 112 128 131 117 147 182 176 188 224 211 160 185 215 226 284 167 173 203 224 259 280 263 219
302 306 304 309 315 321 314 277 239 228 233 242 223 216 213 192 187 181 175 166 162 142 134 170 150 179 170 201 256 168 190 192 233 128 249 252 258 235 248 268 259 266 270 249 215
296 299 303 305 309 314 305 246 246 236 217 231 186 207 156 171 163 178 174 161 158 182 207 161 225 207 149 135 76 107 170 266 228 4 287 255 271 273 276 270 252 240 206 188 176
291 287 295 307 307 306 285 219 228 231 265 232 232 212 182 171 160 182 169 190 206 200 167 199 215 117 112 128 133 160 273 283 296 196 295 290 286 292 196 108 158 173 167 154 153
291 282 284 298 303 292 262 252 268 253 259 213 197 187 178 182 200 181 177 165 201 192 198 251 113 148 157 159 199 211 255 287 300 315 242 303 231 169 148 127 97 129 145 150 156
281 282 277 293 296 266 255 254 239 181 270 170 194 196 174 167 189 172 180 190 177 204 183 248 146 196 194 201 211 248 138 186 298 317 297 2 301 181 169 146 128 138 147 150 154
276 278 267 270 262 275 259 224 163 135 276 134 151 163 168 186 136 170 178 170 212 166 219 99 172 175 195 152 189 78 101 318 296 272 304 153 241 114 177 188 173 156 150 152 153
264 269 262 254 258 254 224 164 136 168 248 164 143 169 163 180 161 134 154 128 102 141 333 97 47 283 43 88 106 138 155 141 141 214 239 43 275 165 178 206 175 171 171 161 148
249 252 257 243 245 217 182 151 118 213 108 177 178 175 190 171 172 186 176 182 201 165 191 171 181 143 177 161 152 204 236 243 230 208 326 131 248 284 185 190 191 179 173 174 254
248 236 237 234 232 203 166 184 204 216 195 108 141 154 186 161 181 179 178 214 212 205 158 204 195 179 156 283 192 172 274 269 276 285 347 154 238 238 102 203 189 180 182 195 286
235 227 217 213 214 193 173 214 204 209 152 156 146 174 191 180 186 184 208 212 193 192 202 164 145 103 61 107 296 138 207 7 96 43 266 235 260 234 204 182 187 190 200 223 282
240 221 220 200 194 183 198 233 227 172 134 168 194 197 189 182 179 196 189 169 166 186 185 156 124 148 118 151 67 296 133 163 119 229 253 222 268 248 189 203 201 207 218 238 282
217 188 209 197 179 166 217 219 241 210 169 177 198 166 187 185 199 186 186 156 170 144 134 147 230 129 180 207 181 148 192 91 74 295 273 295 250 76 181 204 205 217 225 258 291
218 208 189 180 163 190 211 207 213 191 194 166 158 138 180 168 181 208 197 215 168 157 169 152 113 167 145 94 356 270 184 196 236 185 245 327 269 126 273 262 221 221 233 265 293
224 174 174 172 203 183 170 228 259 182 197 182 187 184 153 170 167 191 189 134 163 165 160 173 177 150 171 173 177 227 187 151 108 171 210 222 248 89 218 194 199 223 252 284 300
190 157 166 210 245 214 187 214 209 198 210 185 145 130 134 157 116 163 153 146 182 184 153 147 171 246 275 93 124 193 192 203 201 214 206 232 275 229 221 230 252 267 284 292 290
208 206 184 193 218 210 175 184 198 187 216 189 182 211 162 136 153 168 155 131 155 162 132 178 215 195 272 204 194 228 193 195 208 219 224 264 256 269 285 289 289 289 289 288 295
194 176 181 195 193 187 186 198 204 180 165 201 227 190 187 158 186 182 151 177 179 158 145 58 154 166 259 217 230 255 254 232 225 235 245 259 271 283 284 285 266 274 287 287 292
243 224 212 178 181 181 203 207 203 169 209 200 191 168 204 205 133 87 157 157 157 152 152 156 152 171 246 148 277 264 253 229 217 224 226 239 246 235 262 259 274 289 295 296 294